W7DRM Weather Reports


time (UTC)temp
F
wind
direction
speed
knots
gust
knots
rain 1hr
in
rain 24hr
in
rain mn
in
humidity
%
barometer
mb
20260505184104 77 260 2.6 6.1 0.00 0.00 0.00 26 1005.6
20260505183104 77 184 1.7 4.3 0.00 0.00 0.00 27 1005.8
20260505182104 76 313 1.7 5.2 0.00 0.00 0.00 26 1005.8
20260505181103 76 263 1.7 6.1 0.00 0.00 0.00 27 1005.9
20260505180104 75 204 0.9 7.0 0.00 0.00 0.00 28 1005.9
20260505175104 75 201 2.6 5.2 0.00 0.00 0.00 28 1005.9
20260505174103 74 204 2.6 7.8 0.00 0.00 0.00 27 1005.9
20260505173104 74 175 1.7 6.1 0.00 0.00 0.00 30 1005.9
20260505172103 73 158 2.6 7.8 0.00 0.00 0.00 30 1005.9
20260505171103 73 170 3.5 7.0 0.00 0.00 0.00 30 1005.9
20260505170104 72 180 4.3 7.0 0.00 0.00 0.00 31 1005.9
20260505165103 72 168 2.6 7.0 0.00 0.00 0.00 31 1005.8
20260505164104 71 188 4.3 7.8 0.00 0.00 0.00 31 1005.8
20260505163103 71 184 4.3 10.4 0.00 0.00 0.00 32 1005.7
20260505162104 70 159 3.5 11.3 0.00 0.00 0.00 33 1005.6
20260505161103 70 198 4.3 10.4 0.00 0.00 0.00 35 1005.5
20260505153104 67 168 3.5 6.1 0.00 0.00 0.00 41 1005.3
20260505152103 66 183 4.3 7.8 0.00 0.00 0.00 42 1005.1
20260505151104 66 177 4.3 11.3 0.00 0.00 0.00 41 1004.8
20260505150104 65 116 5.2 11.3 0.00 0.00 0.00 41 1004.7
20260505140104 57 338 0.9 4.3 0.00 0.00 0.00 58 1004.1
20260505130104 54 119 4.3 7.8 0.00 0.00 0.00 59 1003.2
20260505122103 53 184 0.0 0.9 0.00 0.00 0.00 62 1002.3
20260505121103 53 184 0.0 1.7 0.00 0.00 0.00 61 1002.0
20260505120104 53 195 0.0 1.7 0.00 0.00 0.00 60 1002.0
20260505115104 54 126 0.9 4.3 0.00 0.00 0.00 60 1001.8
20260505114103 54 168 0.0 2.6 0.00 0.00 0.00 59 1001.8
20260505113103 54 130 0.0 2.6 0.00 0.00 0.00 57 1001.7
20260505112104 55 107 0.0 0.9 0.00 0.00 0.00 57 1001.5
20260505102103 58 149 0.9 2.6 0.00 0.00 0.00 51 1001.3
20260505101104 58 175 0.9 2.6 0.00 0.00 0.00 51 1001.1
20260505100104 58 188 0.9 5.2 0.00 0.00 0.00 51 1001.0
20260505092104 60 192 2.6 6.1 0.00 0.00 0.00 47 1000.5
20260505091103 60 175 2.6 6.1 0.00 0.00 0.00 47 1000.5
20260505090104 60 175 2.6 6.1 0.00 0.00 0.00 47 1000.5
20260505085103 60 164 4.3 8.7 0.00 0.00 0.00 46 1000.5
20260505084104 60 197 6.1 10.4 0.00 0.00 0.00 46 1000.3
20260505083104 61 200 1.7 5.2 0.00 0.00 0.00 46 1000.3
20260505082103 61 246 0.9 5.2 0.00 0.00 0.00 45 1000.4
20260505081103 61 176 0.9 4.3 0.00 0.00 0.00 45 1000.2
20260505075104 61 338 0.9 2.6 0.00 0.00 0.00 45 1000.3
20260505074104 62 199 0.9 2.6 0.00 0.00 0.00 44 1000.4
20260505070104 63 176 1.7 4.3 0.00 0.00 0.00 42 1000.2
20260505065104 64 188 1.7 5.2 0.00 0.00 0.00 41 1000.2
20260505064104 64 183 1.7 2.6 0.00 0.00 0.00 40 1000.0
20260505062104 64 201 2.6 5.2 0.00 0.00 0.00 39 1000.0
20260505061103 64 178 0.9 5.2 0.00 0.00 0.00 40 1000.0
20260505060104 64 132 0.0 2.6 0.00 0.00 0.00 40 1000.0
20260505054105 65 135 0.9 2.6 0.00 0.00 0.00 39 999.9
20260505053103 64 187 0.9 4.3 0.00 0.00 0.00 38 999.9
20260505052106 65 166 0.9 2.6 0.00 0.00 0.00 39 999.9
20260505051104 65 128 1.7 4.3 0.00 0.00 0.00 38 999.9
20260505050103 67 106 0.9 4.3 0.00 0.00 0.00 36 999.9
20260505041104 69 90 1.7 4.3 0.00 0.00 0.00 36 999.4
20260505040104 70 264 0.0 2.6 0.00 0.00 0.00 32 999.4
20260505035104 71 33 0.9 1.7 0.00 0.00 0.00 29 999.3
20260505034104 71 65 0.9 2.6 0.00 0.00 0.00 28 999.2
20260505033104 72 31 0.9 2.6 0.00 0.00 0.00 28 998.9
20260505031104 74 120 0.9 2.6 0.00 0.00 0.00 29 998.9
20260505030103 75 348 1.7 2.6 0.00 0.00 0.00 27 998.8
20260505025104 75 326 2.6 5.2 0.00 0.00 0.00 26 998.7
20260505024103 76 319 2.6 5.2 0.00 0.00 0.00 25 998.5
20260505023104 77 324 3.5 7.0 0.00 0.00 0.00 25 998.4
20260505022104 78 316 2.6 7.0 0.00 0.00 0.00 24 998.3
20260505021103 79 331 7.8 11.3 0.00 0.00 0.00 11 998.4
20260504225104 86 313 4.3 10.4 0.00 0.00 0.00 12 999.7
20260504224104 86 317 6.1 11.3 0.00 0.00 0.00 12 999.7
20260504223104 86 302 5.2 13.0 0.00 0.00 0.00 12 999.9
20260504222104 87 291 2.6 10.4 0.00 0.00 0.00 13 999.8
20260504221104 86 285 3.5 7.8 0.00 0.00 0.00 16 999.9
20260504220104 86 294 4.3 12.2 0.00 0.00 0.00 18 1000.1
20260504215103 86 285 2.6 7.8 0.00 0.00 0.00 17 1000.2
20260504214103 86 287 2.6 7.8 0.00 0.00 0.00 20 1000.3
20260504213103 85 307 2.6 7.8 0.00 0.00 0.00 19 1000.4
20260504210104 84 19 3.5 7.0 0.00 0.00 0.00 22 1000.8
20260504205103 83 345 2.6 7.8 0.00 0.00 0.00 22 1000.9
20260504203103 83 335 2.6 7.8 0.00 0.00 0.00 21 1001.2
20260504202104 83 355 2.6 7.0 0.00 0.00 0.00 24 1001.4
20260504200103 82 275 1.7 2.6 0.00 0.00 0.00 26 1001.5
20260504195104 82 215 2.6 5.2 0.00 0.00 0.00 28 1001.7
20260504194103 81 250 1.7 5.2 0.00 0.00 0.00 28 1001.9
20260504193104 80 167 2.6 5.2 0.00 0.00 0.00 28 1002.0
20260504191104 79 232 1.7 7.0 0.00 0.00 0.00 30 1002.3
20260504185103 79 169 2.6 7.0 0.00 0.00 0.00 29 1002.5